Location: Lewisville
(33.0462°N, 96.9942°W)
Time: 03:04:59
(UTC-05:00)

X-37B - Visible Passes

Search period start: 23 April 2024 00:00
Search period end: 03 May 2024 00:00
Orbit: 277 x 277 km, 45.0° (Epoch: 01 November)

Date Brightness Start Highest point End Pass type
(mag) Time Alt. Az. Time Alt. Az. Time Alt. Az.
23 Apr 1.9 21:01:51 10° S 21:02:48 16° SSE 21:02:48 16° SSE visible
24 Apr 0.2 21:01:54 10° SW 21:04:15 43° SE 21:05:11 27° E visible
25 Apr 0.1 21:02:28 10° WSW 21:04:54 71° NNW 21:07:09 11° NE visible
26 Apr 1.8 21:03:22 10° W 21:05:37 31° NNW 21:07:51 10° NE visible
27 Apr 2.8 21:04:37 10° WNW 21:06:24 18° NNW 21:08:11 10° NNE visible
28 Apr 3.2 21:06:16 10° NW 21:07:15 12° NNW 21:08:14 10° N visible
